Skip Page Navigation
NASA JPL Caltech
NASA Logo - Jet Propulsion Laboratory + View the NASA Portal
+ Near-Earth Object (NEO) Program
Search JPL
JPL Home Earth Solar System Stars & Galaxies Technology
JPL Solar System Dynamics
BODIES ORBITS EPHEMERIDES TOOLS PHYSICAL DATA DISCOVERY FAQ SITE MAP
JPL Small-Body Database Browser
Search: [ help ]  
107052 Aquincum (2001 AQ)
Classification: Main-belt Asteroid          SPK-ID: 2107052
Ephemeris | Orbit Diagram | Orbital Elements | Physical Parameters | Discovery Circumstances ]

[ hide orbit diagram ]
Orbit Diagram
Note: Make sure you have Java enabled on your browser to see the applet. This applet is provided as a 3D orbit visualization tool. The applet was implemented using 2-body methods, and hence should not be used for determining accurate long-term trajectories (over several years or decades) or planetary encounter circumstances. For accurate long-term ephemerides, please instead use our Horizons system.
Orbit Viewer

Additional Notes: the orbits shown in the applet are color coded. The planets are white lines, and the asteroid/comet is a blue line. The bright white line indicates the portion of the orbit that is above the ecliptic plane, and the darker portion is below the ecliptic plane. Likewise for the asteroid/comet orbit, the light blue indicates the portion above the ecliptic plane, and the dark blue the portion below the ecliptic plane.

Orbit Viewer applet originally written and kindly provided by Osamu Ajiki (AstroArts), and further modified by Ron Baalke (JPL).


Orbital Elements at Epoch 2456400.5 (2013-Apr-18.0) TDB
Reference: MPO223850 (heliocentric ecliptic J2000)
 Element Value Uncertainty (1-sigma)   Units 
e 0.1335581 n/a  
a 2.3558347 n/a AU
q 2.0411939 n/a AU
i 5.49960 n/a deg
node 105.82159 n/a deg
peri 338.39264 n/a deg
M 163.78295 n/a deg
tp 2455799.6281756
(2011-Aug-26.12817560)
n/a JED
period 1320.7348921
3.62
n/a
n/a
d
yr
n 0.27257552 n/a deg/d
Q 2.6704755 n/a AU
  Orbit Determination Parameters
   # obs. used (total)      131  
   first obs. used      2000-??-??  
   last obs. used      2012-02-29  
   # oppositions      8  
   planetary ephem.      DE403  
   condition code      0  
   fit RMS      0.47  
   data source      MPC:mpu  
   producer      MPCLINUX  

Additional Information
 T_jup = 3.536 

Ephemeris | Orbit Diagram | Orbital Elements | Physical Parameters | Discovery Circumstances ]

Physical Parameter Table
Parameter Symbol Value Units Sigma Reference Notes
absolute magnitude H 17.1 mag n/a MPO223850  

107052 Aquincum           Discovered 2001 Jan. 1 by K. Sárneczky and L. Kiss at Piszkéstet{o´´}.
Between the first and fourth centuries Aquincum was one of the northernmost Roman garrisons in central Europe, located in the part of the modern area of Budapest named Óbuda. This minor planet is being named to honor the Council of Óbuda for endorsing Hungarian amateur astronomy.
NOTE: some special characters may not display properly (any characters within {} are an attempt to place the proper accent above a character)
Reference: 20080122/MPCPages.arcLast Updated: 2008-03-05
Ephemeris | Orbit Diagram | Orbital Elements | Physical Parameters | Discovery Circumstances ]
ABOUT SSD CREDITS/AWARDS PRIVACY/COPYRIGHT GLOSSARY LINKS
FirstGov 2013-Jun-19 18:37 UT
(server date/time)  
NASA Home Page
Site Manager:   Donald K. Yeomans
Webmaster  Alan B. Chamberlin